Showing default

EDRS-C, 44475

Orbit data source: Space-Track

EDRS-C, 44475 is a payload satellite owned by ESA (ESA) in GEO that was launched on Tue, 06 Aug 2019 UTC via an ARIANE 5ECA+ launch vehicle from the French Guiana (FRGUI). Payload-class satellites include a variety of spacecraft equipped with specific instruments for various scientific and technological missions. These include communications satellites like Starlink; space stations such as the ISS; scientific satellites like the Hubble; Earth observation satellites from companies like Planet Labs, Umbra, and HawkEye 360; GPS; miniature CubeSats for education and research; and military/defense satellites.

Not visible in the next 10 days
Identifier
44475, 2019-049A
Orbit
GEO
Country
Flag of ESAESA
Related business
Manufacturer
OHB
Mission
Operational Civil Communications
Bus & Motor
SMALLGEO, S400
Mass
3,186 kg wet, ~1,700 kg dry
Launch date (UTC)
2019-08-06 (6 years ago)
Launch vehicle
ARIANE 5ECA+
Launch site
French Guiana (FRGUI)
Object type
Payload
Rocket body
Debris
Shape & HBR
Box + 2 Pan, 10.4 m
Radar Cross Section
22.899 m², Small (<0.1 m²)

Expand to show TLE details & history
Last TLE update: 23 hours ago

TLE from 23 hours ago
0 EDRS-C
1 44475U 19049A   25310.56179624 -.00000254  00000-0  00000-0 0  9990
2 44475   0.0384 111.2623 0001238 127.9100 151.6029  1.00269053 22971
Epoch: 2025-11-06T13:28Z
TLE epoch observation values (Epoch: 2025-11-06T13:28:59.195Z)
Latitude
0.00796°
Longitude
142.4817°
Altitude
35,791.468 km
Speed
3.074 km/s
True Right ascension
02h 02m 59s
True Declination
0° 00' 29"
Sunlit
Object was in daylight at epoch
Visualization orbit readout
Latitude
Unknown
Longitude
Unknown
Altitude
Unknown
Speed
Unknown
Apparent Right ascension
Unknown
Apparent Declination
Unknown
Sunlit
N/A
Visualization observer readout
Local Sidereal Time
08:31:35
Azimuth
Unknown
Elevation
Unknown
Doppler factor
Unknown
Orbital elements
Apogee altitude
35,793.651 km
Perigee altitude
35,783.211 km
Semi-major axis
42,166.568 km
Eccentricity
0.00012
Inclination
0.0384°
RAAN
111.2623°
Arg. of periapsis
127.91°
True anomaly
151.60965°
Mean anomaly
151.6029°
Eccentric anomaly
151.60627°
Mean motion
0.25066 °/min
Orbital period
1,436.19 mins
BSTAR
0
Loading maneuver chart data...
Computing Atmospheric mass density...
Loading historical data...
Loading historical data...
Loading historical data...
Loading historical data...
Loading historical data...
Loading historical data...
Loading historical data...
Other satellites on launch #49 in the year 2019 (2019-08-06 UTC)

Documentation

Showing up to 5 results
|